PBO Station Position Time Series. Reference Frame : NAM14
Format Version,1.1.0
4-character ID,P423
Station name,Grapeview_WA2005
Begin Date, 2005-04-23
End Date, 2019-10-07
Release Date, 2019-10-08
Reference position, 47.2879034237 North Latitude, -122.9412103839 East Longitude, 39.97076 meters elevation,
Date, North (mm), East (mm), Vertical (mm), North Std. Deviation (mm), East Std. Deviation (mm),              Vertical Std. Deviation (mm), Quality,
2005-04-23,0.00, 0.00, 0.00, 2.40, 1.68, 7.48, repro,
2005-04-24,1.11, -0.16, -0.63, 2.36, 1.63, 7.49, repro,
2005-04-25,0.87, -0.82, 0.78, 2.33, 1.62, 7.32, repro,
2005-04-26,0.79, -1.61, 0.01, 2.40, 1.65, 7.63, repro,
2005-04-27,0.13, -1.98, -2.28, 2.39, 1.67, 7.43, repro,
2005-04-28,2.93, -1.70, 4.79, 2.45, 1.73, 7.70, repro,
2005-04-29,-0.10, -1.10, -6.02, 2.32, 1.61, 7.24, repro,
2005-04-30,2.37, -0.10, -6.36, 2.31, 1.62, 7.26, repro,
2005-05-01,0.04, -1.13, -0.15, 2.36, 1.62, 7.48, repro,
2005-05-02,1.14, -1.32, 0.39, 2.32, 1.62, 7.28, repro,
2005-05-03,1.17, -0.83, 1.55, 2.36, 1.67, 7.53, repro,
2005-05-04,-0.52, -1.60, 7.29, 2.33, 1.64, 7.36, repro,
2005-05-05,-0.86, -0.96, 9.42, 2.32, 1.62, 7.33, repro,
2005-05-06,-0.13, -1.28, 6.06, 2.32, 1.62, 7.33, repro,
2005-05-07,0.62, -0.84, 8.18, 2.33, 1.62, 7.37, repro,
2005-05-08,0.32, -0.98, 0.62, 2.35, 1.64, 7.35, repro,
2005-05-09,1.31, 0.29, 7.38, 3.04, 2.15, 9.39, repro,
2005-05-10,0.09, -0.39, 3.67, 2.39, 1.67, 7.56, repro,
2005-05-11,-0.13, -0.50, -1.71, 2.44, 1.74, 7.84, repro,
2005-05-12,0.64, -1.32, -1.58, 2.40, 1.72, 7.71, repro,
2005-05-13,1.08, -1.16, 0.48, 2.47, 1.75, 7.77, repro,
2005-05-14,0.96, -1.10, 7.45, 2.39, 1.71, 7.58, repro,
2005-05-15,-0.21, -1.37, 2.67, 2.47, 1.77, 8.01, repro,
2005-05-16,0.83, -1.52, 13.84, 2.36, 1.69, 7.60, repro,
2005-05-17,0.30, -1.20, 7.00, 2.42, 1.72, 7.71, repro,
2005-05-18,1.45, -1.79, 9.27, 2.47, 1.75, 7.80, repro,
2005-05-19,-0.03, -1.17, 3.79, 2.37, 1.70, 7.58, repro,
2005-05-20,1.55, -1.44, 0.75, 2.44, 1.76, 7.75, repro,
2005-05-21,0.90, 0.04, -7.11, 2.70, 1.99, 8.85, repro,
2005-05-22,0.46, -0.09, -15.00, 2.46, 1.77, 8.04, repro,
2005-05-23,1.67, -0.67, -7.83, 2.36, 1.70, 7.62, repro,
2005-05-24,1.11, -1.17, 0.43, 2.37, 1.69, 7.61, repro,
2005-05-25,2.48, -1.00, -2.26, 2.37, 1.69, 7.58, repro,
2005-05-26,1.12, -0.82, -6.23, 2.43, 1.70, 7.73, repro,
2005-05-27,0.80, 0.15, -7.31, 2.36, 1.67, 7.48, repro,
2005-05-28,1.19, -0.61, -4.06, 2.37, 1.68, 7.58, repro,
2005-05-29,-0.47, -1.78, 4.91, 2.55, 1.83, 8.50, repro,
2005-05-30,1.42, -1.69, -2.28, 2.41, 1.73, 7.75, repro,
2005-05-31,0.36, -0.65, 3.56, 2.33, 1.66, 7.44, repro,
2005-06-01,-0.37, -2.32, -3.33, 2.35, 1.64, 7.36, repro,
2005-06-02,-1.53, -1.07, 1.32, 2.35, 1.63, 7.34, repro,
2005-06-03,0.50, -1.13, 0.41, 2.35, 1.65, 7.44, repro,
2005-06-04,1.65, -0.34, 2.33, 2.33, 1.64, 7.38, repro,
2005-06-05,1.29, -0.54, -0.93, 2.57, 1.72, 7.88, repro,
2005-06-06,0.79, -0.11, 1.24, 2.33, 1.64, 7.33, repro,
2005-06-07,0.15, -0.03, 0.76, 2.35, 1.64, 7.36, repro,
2005-06-08,0.44, -0.17, 4.01, 2.33, 1.64, 7.37, repro,
2005-06-09,0.20, -0.46, 5.37, 2.37, 1.65, 7.55, repro,
2005-06-10,0.70, -0.80, 9.26, 2.39, 1.69, 7.58, repro,
2005-06-11,0.13, -0.82, -3.01, 2.40, 1.69, 7.62, repro,
2005-06-12,1.97, -1.73, 1.63, 2.42, 1.71, 7.69, repro,
2005-06-13,-0.83, -1.82, 1.29, 2.46, 1.74, 7.77, repro,
2005-06-14,0.16, -0.81, 2.59, 2.38, 1.69, 7.57, repro,
2005-06-15,-0.13, -0.51, -0.78, 2.65, 1.86, 8.20, repro,
2005-06-16,0.06, -2.45, 14.56, 2.48, 1.71, 7.59, repro,
2005-06-17,-0.72, -1.22, 5.26, 2.44, 1.70, 7.63, repro,
2005-06-18,0.06, -1.34, 6.05, 2.33, 1.65, 7.37, repro,
2005-06-19,-0.17, -1.17, 0.91, 2.31, 1.64, 7.35, repro,
2005-06-20,-1.01, -1.68, -0.23, 2.35, 1.67, 7.50, repro,
2005-06-21,0.91, -0.98, -1.47, 2.32, 1.63, 7.34, repro,
2005-06-22,0.77, -2.42, 2.35, 2.38, 1.70, 7.52, repro,
2005-06-23,1.08, -1.62, 0.51, 2.34, 1.64, 7.37, repro,
2005-06-24,0.16, -2.10, -5.03, 2.32, 1.64, 7.34, repro,
2005-06-25,-0.93, -0.01, -1.55, 2.31, 1.63, 7.28, repro,
2005-06-26,1.06, 1.61, 0.25, 2.89, 2.25, 9.52, repro,
2005-06-27,2.57, -1.68, 6.11, 2.38, 1.70, 7.46, repro,
2005-06-28,0.96, -1.82, 5.21, 2.32, 1.64, 7.36, repro,
2005-06-29,0.56, -1.94, 4.08, 2.31, 1.63, 7.30, repro,
2005-06-30,0.18, -2.15, 0.27, 2.30, 1.62, 7.28, repro,
2005-07-01,0.11, -1.31, 4.22, 2.69, 1.99, 8.96, repro,
2005-07-02,1.29, -1.36, -4.06, 2.43, 1.72, 7.59, repro,
2005-07-03,-0.28, 0.11, 1.85, 2.38, 1.67, 7.44, repro,
2005-07-04,0.31, -1.08, 0.03, 2.32, 1.64, 7.32, repro,
2005-07-05,-1.85, -0.56, 14.06, 2.71, 2.00, 8.99, repro,
2005-07-06,-1.88, -1.53, 11.25, 2.31, 1.63, 7.36, repro,
2005-07-07,1.53, -1.84, 2.24, 2.41, 1.71, 7.57, repro,
2005-07-08,0.30, -1.67, 8.50, 2.35, 1.68, 7.52, repro,
2005-07-09,0.94, -2.05, 10.83, 2.31, 1.63, 7.29, repro,
2005-07-10,0.07, -1.78, 6.43, 2.40, 1.70, 7.62, repro,
2005-07-11,-2.07, -2.87, 4.81, 2.39, 1.67, 7.52, repro,
2005-07-12,1.06, -2.83, 6.02, 2.29, 1.62, 7.24, repro,
2005-07-13,2.24, -0.59, -3.60, 2.36, 1.67, 7.40, repro,
2005-07-14,0.28, 0.54, 0.24, 2.34, 1.68, 7.49, repro,
2005-07-15,1.05, -1.98, 10.79, 2.33, 1.64, 7.39, repro,
2005-07-16,1.63, -0.47, 2.23, 2.38, 1.68, 7.59, repro,
2005-07-17,1.21, -0.44, 3.70, 2.31, 1.62, 7.32, repro,
2005-07-18,1.22, -0.93, 7.33, 2.29, 1.64, 7.31, repro,
2005-07-19,2.22, -1.95, 7.45, 2.32, 1.63, 7.31, repro,
2005-07-20,0.73, -0.99, 0.84, 2.32, 1.63, 7.36, repro,
2005-07-21,0.49, 0.24, 1.76, 2.32, 1.65, 7.43, repro,
2005-07-22,0.58, -0.02, 2.36, 2.35, 1.66, 7.47, repro,
2005-07-23,0.80, 0.71, 2.53, 2.35, 1.64, 7.35, repro,
2005-07-24,0.15, 0.24, 0.49, 2.32, 1.65, 7.46, repro,
2005-07-25,2.85, 0.50, -0.14, 2.35, 1.66, 7.48, repro,
2005-07-26,0.11, -0.83, 0.86, 2.42, 1.72, 7.84, repro,
2005-07-27,1.58, -0.41, 4.06, 2.46, 1.78, 7.90, repro,
2005-07-28,0.75, -0.13, 1.47, 2.47, 1.80, 7.91, repro,
2005-07-29,1.11, 0.25, 1.75, 2.32, 1.64, 7.39, repro,
2005-07-30,0.02, 0.52, -0.90, 2.34, 1.65, 7.43, repro,
2005-07-31,0.99, -1.91, 5.02, 2.53, 1.74, 7.96, repro,
2005-08-01,-0.44, -1.79, 5.68, 2.36, 1.66, 7.52, repro,
2005-08-02,1.48, -0.51, -3.64, 2.42, 1.69, 7.66, repro,
2005-08-03,0.59, -1.69, 5.34, 2.36, 1.65, 7.43, repro,
2005-08-04,1.43, -0.36, -1.16, 2.35, 1.65, 7.45, repro,
2005-08-05,1.94, 0.58, 0.48, 2.40, 1.65, 7.45, repro,
2005-08-06,1.37, -0.66, 4.66, 2.32, 1.61, 7.26, repro,
2005-08-07,1.32, -1.21, -0.31, 2.39, 1.67, 7.54, repro,
2005-08-08,1.12, -0.63, 2.00, 2.29, 1.63, 7.29, repro,
2005-08-09,1.62, 0.28, -0.04, 2.38, 1.66, 7.47, repro,
2005-08-10,1.88, 0.04, -1.27, 2.34, 1.64, 7.40, repro,
2005-08-11,-0.24, -1.06, 5.15, 2.44, 1.73, 7.70, repro,
2005-08-12,1.03, -1.48, 2.37, 2.37, 1.71, 7.60, repro,
2005-08-13,1.46, 0.61, 1.36, 2.30, 1.65, 7.40, repro,
2005-08-14,1.65, 0.21, 6.64, 2.51, 1.78, 7.95, repro,
2005-08-15,1.10, 0.88, 2.10, 2.36, 1.68, 7.48, repro,
2005-08-16,1.70, 0.04, 9.48, 2.40, 1.68, 7.52, repro,
2005-08-17,3.02, -2.50, 6.82, 2.54, 1.79, 8.01, repro,
2005-08-18,1.89, -1.10, 8.16, 2.40, 1.67, 7.55, repro,
2005-08-19,1.83, -0.52, 5.06, 2.38, 1.65, 7.40, repro,
2005-08-20,-0.71, -0.44, 12.13, 2.39, 1.65, 7.43, repro,
2005-08-21,0.76, -1.50, 15.23, 2.33, 1.65, 7.45, repro,
2005-08-22,1.17, 1.30, 7.05, 2.34, 1.65, 7.47, repro,
2005-08-23,1.58, -1.31, 7.02, 2.31, 1.63, 7.35, repro,
2005-08-24,1.17, -2.16, 6.61, 2.38, 1.65, 7.50, repro,
2005-08-25,-0.83, -0.52, 7.86, 2.38, 1.64, 7.46, repro,
2005-08-26,0.13, -1.45, 7.02, 2.40, 1.67, 7.61, repro,
2005-08-27,2.46, -2.08, 8.03, 2.32, 1.63, 7.35, repro,
2005-08-28,0.98, -1.48, 6.81, 2.41, 1.68, 7.57, repro,
2005-08-29,1.52, -0.96, 7.23, 2.33, 1.65, 7.47, repro,
2005-08-30,0.96, -1.17, 5.88, 2.40, 1.70, 7.72, repro,
2005-08-31,-0.69, -0.54, 9.51, 2.41, 1.69, 7.62, repro,
2005-09-01,2.48, -0.81, 6.74, 2.36, 1.63, 7.39, repro,
2005-09-02,2.05, -0.58, 5.70, 2.44, 1.73, 7.78, repro,
2005-09-03,1.51, -0.71, 8.01, 2.31, 1.63, 7.32, repro,
2005-09-04,1.22, -2.38, 11.04, 2.34, 1.67, 7.55, repro,
2005-09-05,1.85, -0.69, 3.72, 2.42, 1.69, 7.61, repro,
2005-09-06,1.02, -1.38, 7.21, 2.43, 1.73, 7.76, repro,
2005-09-07,1.21, -0.73, 2.31, 2.40, 1.64, 7.41, repro,
2005-09-08,1.77, -0.21, 3.44, 2.36, 1.61, 7.34, repro,
2005-09-09,0.63, -2.07, 5.34, 2.38, 1.65, 7.42, repro,
2005-09-10,0.47, -0.73, 4.27, 2.46, 1.68, 7.60, repro,
2005-09-11,1.71, -0.51, 5.50, 2.53, 1.72, 7.78, repro,
2005-09-12,3.68, -1.45, 7.52, 2.45, 1.66, 7.53, repro,
2005-09-13,2.14, -0.75, 8.42, 2.64, 1.80, 8.13, repro,
2005-09-14,0.42, -0.06, 13.89, 2.49, 1.71, 7.67, repro,
2005-09-15,1.10, -1.01, 2.99, 2.43, 1.71, 7.63, repro,
2005-09-16,1.31, -0.80, 7.74, 2.41, 1.69, 7.54, repro,
2005-09-17,0.56, -0.42, 7.98, 2.35, 1.63, 7.37, repro,
2005-09-18,0.81, -2.24, 12.49, 2.35, 1.65, 7.44, repro,
2005-09-19,0.13, -2.16, 6.45, 2.43, 1.65, 7.61, repro,
2005-09-20,-0.28, -0.54, 6.00, 2.29, 1.62, 7.35, repro,
2005-09-21,2.35, -0.61, 2.51, 2.41, 1.69, 7.67, repro,
2005-09-22,1.27, 0.03, 1.12, 2.30, 1.61, 7.30, repro,
2005-09-23,1.35, -1.69, 7.17, 2.40, 1.70, 7.56, repro,
2005-09-24,0.44, -1.46, 5.55, 2.36, 1.66, 7.47, repro,
2005-09-25,1.14, -1.47, 12.40, 2.41, 1.68, 7.60, repro,
2005-09-26,1.09, -0.75, 7.98, 2.35, 1.67, 7.53, repro,
2005-09-27,1.66, 0.03, 7.72, 2.35, 1.69, 7.59, repro,
2005-09-28,-1.58, -0.22, 12.42, 2.37, 1.65, 7.42, repro,
2005-09-29,0.41, -0.80, 19.67, 2.42, 1.73, 7.59, repro,
2005-09-30,0.94, -1.80, 17.27, 2.35, 1.64, 7.47, repro,
2005-10-01,0.91, -1.50, 8.37, 2.33, 1.64, 7.42, repro,
2005-10-02,2.24, -0.98, 11.41, 2.35, 1.68, 7.54, repro,
2005-10-03,1.71, -1.19, 5.12, 2.37, 1.69, 7.60, repro,
2005-10-04,0.30, -1.06, 4.59, 2.42, 1.70, 7.72, repro,
2005-10-05,0.89, -1.66, 10.19, 2.33, 1.64, 7.45, repro,
2005-10-06,0.44, -2.08, 13.68, 2.36, 1.66, 7.53, repro,
2005-10-07,0.56, -1.98, 10.82, 2.35, 1.67, 7.55, repro,
2005-10-08,1.30, -0.28, 11.33, 2.28, 1.62, 7.23, repro,
2005-10-09,2.05, 0.81, 6.50, 2.43, 1.72, 7.60, repro,
2005-10-10,-0.51, -1.79, 7.93, 2.42, 1.73, 7.64, repro,
2005-10-11,-1.63, -1.44, 10.03, 2.35, 1.68, 7.52, repro,
2005-10-12,1.41, -1.11, 9.64, 2.36, 1.68, 7.52, repro,
2005-10-13,2.62, -0.37, 7.58, 2.32, 1.69, 7.61, repro,
2005-10-14,1.38, -1.37, 10.74, 2.35, 1.69, 7.48, repro,
2005-10-15,0.54, -0.52, 13.08, 2.32, 1.64, 7.39, repro,
2005-10-16,-0.27, -0.39, 6.59, 2.32, 1.63, 7.37, repro,
2005-10-17,0.68, -2.63, 20.38, 2.34, 1.65, 7.45, repro,
2005-10-18,1.05, -2.21, 12.02, 2.46, 1.79, 8.00, repro,
2005-10-19,1.95, -0.05, 12.86, 2.35, 1.67, 7.46, repro,
2005-10-20,0.07, 0.04, 2.17, 2.44, 1.72, 7.67, repro,
2005-10-21,0.65, 0.34, 4.87, 2.35, 1.65, 7.52, repro,
2005-10-22,1.62, -0.27, 6.12, 2.38, 1.71, 7.52, repro,
2005-10-23,1.44, -1.70, 14.99, 2.32, 1.65, 7.41, repro,
2005-10-24,2.20, -0.95, 4.51, 2.36, 1.67, 7.44, repro,
2005-10-25,1.76, -0.76, 9.20, 2.36, 1.67, 7.45, repro,
2005-10-26,-0.18, -0.25, 8.48, 2.42, 1.73, 7.65, repro,
2005-10-27,0.74, -2.04, 9.57, 2.38, 1.69, 7.66, repro,
2005-10-28,0.84, -1.69, 11.08, 2.34, 1.66, 7.48, repro,
2005-10-29,0.77, -1.44, 10.45, 2.42, 1.74, 7.72, repro,
2005-10-30,2.04, -0.11, 4.51, 2.40, 1.71, 7.72, repro,
2005-10-31,3.33, 0.15, 5.93, 2.40, 1.70, 7.53, repro,
2005-11-01,2.06, -0.66, 8.33, 2.51, 1.78, 8.03, repro,
2005-11-02,2.28, -1.58, 4.99, 2.49, 1.80, 8.01, repro,
2005-11-03,1.53, -1.66, 9.87, 2.35, 1.70, 7.53, repro,
2005-11-04,2.00, -0.46, 6.38, 2.55, 1.82, 8.13, repro,
2005-11-05,0.89, 1.09, -3.34, 2.49, 1.81, 7.96, repro,
2005-11-06,2.53, 0.10, 2.38, 2.43, 1.72, 7.55, repro,
2005-11-07,2.00, 0.29, 1.11, 3.02, 2.12, 9.60, repro,
2005-11-08,1.27, -0.67, 0.56, 2.47, 1.79, 7.96, repro,
2005-11-09,3.02, -0.71, 6.85, 2.46, 1.78, 7.89, repro,
2005-11-10,0.40, 0.45, 5.53, 2.56, 1.80, 8.15, repro,
2005-11-11,1.93, -0.90, 4.31, 2.41, 1.72, 7.61, repro,
2005-11-12,-0.89, -0.32, 1.46, 2.37, 1.72, 7.55, repro,
2005-11-13,1.96, -1.04, 7.03, 2.52, 1.79, 7.95, repro,
2005-11-14,3.16, -0.44, 0.60, 2.46, 1.79, 7.89, repro,
2005-11-15,1.78, -0.34, -6.74, 2.31, 1.62, 7.36, repro,
2005-11-16,2.17, -0.58, -12.99, 2.40, 1.69, 7.66, repro,
2005-11-17,1.22, 2.52, -11.01, 2.83, 2.18, 9.50, repro,
2005-11-18,0.91, 1.11, -5.66, 2.84, 2.16, 9.43, repro,
2005-11-19,1.94, 0.02, -4.92, 2.30, 1.62, 7.35, repro,
2005-11-20,0.21, -0.54, -2.18, 2.31, 1.65, 7.48, repro,
2005-11-21,1.35, 0.16, 0.11, 2.40, 1.69, 7.68, repro,
2005-11-22,1.18, 0.34, -1.45, 2.44, 1.76, 7.92, repro,
2005-11-23,0.44, -0.06, 2.87, 2.34, 1.67, 7.52, repro,
2005-11-24,0.87, -2.04, 12.12, 2.41, 1.73, 7.94, repro,
2005-11-25,1.44, -1.61, 10.64, 2.32, 1.67, 7.52, repro,
2005-11-26,1.11, 0.03, 6.29, 2.52, 1.84, 8.18, repro,
2005-11-27,2.33, -0.65, 2.16, 2.35, 1.68, 7.59, repro,
2005-11-28,2.72, 0.22, -4.58, 2.42, 1.73, 7.74, repro,
2005-11-29,-1.71, -0.34, -7.88, 2.43, 1.68, 7.73, repro,
2005-11-30,2.25, -1.14, 1.80, 2.38, 1.72, 7.58, repro,
2005-12-01,3.01, -1.76, 0.01, 2.37, 1.67, 7.73, repro,
2005-12-02,1.73, -0.78, -7.75, 2.30, 1.65, 7.36, repro,
2005-12-03,0.90, 0.02, -5.46, 2.29, 1.63, 7.30, repro,
2005-12-04,1.26, 0.58, -11.55, 2.37, 1.62, 7.39, repro,
2005-12-05,1.65, -0.26, -6.87, 2.30, 1.62, 7.30, repro,
2005-12-06,1.52, 0.52, -6.16, 2.30, 1.62, 7.33, repro,
2005-12-07,2.14, 0.80, -10.55, 2.32, 1.65, 7.43, repro,
2005-12-08,1.18, 0.37, 1.69, 2.35, 1.68, 7.55, repro,
2005-12-09,-0.73, 1.91, -2.06, 2.31, 1.61, 7.27, repro,
2005-12-10,0.72, 0.31, -4.11, 2.31, 1.61, 7.30, repro,
2005-12-11,1.08, 0.18, 3.21, 2.30, 1.62, 7.34, repro,
2005-12-12,0.91, 0.97, -4.95, 2.32, 1.62, 7.38, repro,
2005-12-13,1.92, 0.04, -2.50, 2.30, 1.61, 7.30, repro,
2005-12-14,0.56, 0.54, -9.62, 2.34, 1.67, 7.52, repro,
2005-12-15,2.15, 1.08, -11.01, 2.78, 1.95, 9.01, repro,
2005-12-16,1.63, 0.40, -5.26, 2.30, 1.61, 7.26, repro,
2005-12-17,2.34, -0.07, -2.27, 2.47, 1.75, 7.71, repro,
2005-12-18,0.26, -0.08, -7.75, 2.32, 1.67, 7.43, repro,
2005-12-19,2.51, 0.62, -12.03, 2.50, 1.84, 7.91, repro,
2005-12-20,-0.90, -0.90, -9.64, 2.45, 1.79, 7.82, repro,
2005-12-21,0.02, 0.67, -0.02, 2.36, 1.72, 7.49, repro,
2005-12-22,3.19, -0.81, -1.14, 2.37, 1.74, 7.56, repro,
2005-12-23,3.33, 0.47, -1.93, 2.53, 1.80, 7.78, repro,
2005-12-24,-0.06, 2.89, -12.23, 2.57, 1.85, 8.30, repro,
2005-12-25,-0.03, 1.53, 3.20, 2.37, 1.72, 7.58, repro,
2005-12-26,2.40, -0.82, 2.26, 2.36, 1.67, 7.48, repro,
2005-12-27,1.72, -1.70, -0.86, 2.35, 1.72, 7.52, repro,
2005-12-28,0.12, 0.31, -3.17, 2.39, 1.73, 7.61, repro,
2005-12-29,0.45, 2.36, -6.12, 2.49, 1.81, 8.07, repro,
2005-12-30,0.45, -0.02, -1.16, 2.52, 1.85, 8.31, repro,
2005-12-31,0.89, 0.89, 3.50, 2.57, 1.86, 8.28, repro,
2006-01-01,3.55, -0.44, 1.65, 2.40, 1.75, 7.69, repro,
2006-01-02,1.82, -0.36, 0.56, 2.66, 1.86, 7.99, repro,
2006-01-03,0.32, 1.71, -3.97, 2.60, 1.94, 8.49, repro,
2006-01-04,1.79, 1.08, -14.76, 2.51, 1.87, 8.12, repro,
2006-01-05,3.05, -0.21, -7.61, 2.42, 1.77, 7.85, repro,
2006-01-06,3.31, 0.93, -8.09, 2.47, 1.83, 8.07, repro,
2006-01-07,2.05, -1.00, -3.53, 2.35, 1.73, 7.56, repro,
2006-01-08,-0.47, 1.21, -8.24, 2.39, 1.77, 7.81, repro,
2006-01-09,0.71, 0.74, -4.88, 2.60, 1.97, 8.48, repro,
2006-01-10,1.70, 1.50, 5.92, 2.46, 1.86, 8.16, repro,
2006-01-11,1.36, -1.05, 0.16, 2.48, 1.80, 7.96, repro,
2006-01-12,1.54, -0.08, -11.97, 2.42, 1.78, 7.66, repro,
2006-01-13,0.54, 0.44, -1.15, 2.49, 1.87, 8.32, repro,
2006-01-14,-0.59, -0.83, -6.28, 2.34, 1.68, 7.41, repro,
2006-01-15,1.92, 0.09, -1.57, 3.02, 2.24, 9.80, repro,
2006-01-16,0.69, 0.77, -13.24, 2.52, 1.93, 8.28, repro,
2006-01-17,0.57, 0.47, -3.05, 2.43, 1.80, 7.75, repro,
2006-01-18,0.48, -0.14, -2.37, 2.34, 1.69, 7.44, repro,
2006-01-19,1.41, 0.66, -7.88, 2.50, 1.76, 7.89, repro,
2006-01-20,0.13, 0.47, -13.43, 2.45, 1.70, 7.61, repro,
2006-01-21,0.23, 1.35, -9.76, 2.37, 1.69, 7.50, repro,
2006-01-22,1.37, 1.12, -11.17, 2.42, 1.70, 7.56, repro,
2006-01-23,0.69, -0.61, -8.36, 2.33, 1.64, 7.32, repro,
2006-01-24,0.57, -0.01, -9.32, 2.38, 1.70, 7.51, repro,
2006-01-25,1.13, 0.42, -10.85, 2.31, 1.64, 7.32, repro,
2006-01-26,1.48, -1.10, -10.79, 2.26, 1.58, 7.14, repro,
2006-01-27,1.58, -0.29, -9.32, 2.31, 1.65, 7.38, repro,
2006-01-28,1.04, -0.66, -5.16, 2.28, 1.62, 7.31, repro,
2006-01-29,2.03, 0.04, -2.98, 2.23, 1.59, 7.11, repro,
2006-01-30,-0.23, 0.07, 0.72, 2.26, 1.61, 7.23, repro,
2006-01-31,-0.56, -0.61, 0.08, 2.35, 1.65, 7.43, repro,
2006-02-01,0.37, -0.23, 0.48, 2.30, 1.59, 7.26, repro,
2006-02-02,-0.59, 0.61, -4.60, 2.28, 1.61, 7.28, repro,
2006-02-03,-1.11, -0.41, -0.72, 2.27, 1.62, 7.26, repro,
2006-02-04,-0.40, 1.12, -4.24, 2.26, 1.60, 7.25, repro,
2006-02-05,0.13, 1.26, -13.63, 2.25, 1.57, 7.16, repro,
2006-02-06,-0.06, 2.14, -14.97, 2.32, 1.60, 7.42, repro,
2006-02-07,-0.85, 0.62, -7.73, 2.36, 1.63, 7.43, repro,
2006-02-08,-0.73, 1.13, -10.78, 2.27, 1.57, 7.16, repro,
2006-02-09,1.07, -0.25, -11.21, 2.38, 1.68, 7.64, repro,
2006-02-10,0.27, 0.84, -13.78, 2.41, 1.65, 7.43, repro,
2006-02-11,-0.37, 0.95, -15.99, 2.39, 1.67, 7.59, repro,
2006-02-12,-1.11, 0.21, -8.10, 3.01, 2.11, 9.75, repro,
2006-02-13,0.45, -0.68, -6.16, 2.34, 1.65, 7.57, repro,
2006-02-14,-0.25, 0.16, -2.34, 2.28, 1.59, 7.25, repro,
2006-02-15,0.83, 0.27, -5.39, 2.34, 1.62, 7.44, repro,
2006-02-16,0.39, 0.44, -8.06, 2.33, 1.62, 7.43, repro,
2006-02-17,0.75, 1.21, -10.78, 2.31, 1.57, 7.25, repro,
2006-02-18,0.31, 1.17, -9.35, 2.33, 1.59, 7.31, repro,
2006-02-19,0.95, 0.51, -4.28, 2.31, 1.60, 7.31, repro,
2006-02-20,1.13, 1.49, -8.54, 2.34, 1.60, 7.26, repro,
2006-02-21,1.21, 1.35, -2.44, 2.59, 1.93, 8.58, repro,
2006-02-22,0.93, 0.01, 0.32, 2.33, 1.61, 7.34, repro,
2006-02-23,-0.45, -0.19, -4.46, 2.34, 1.63, 7.40, repro,
2006-02-24,1.79, 0.49, -5.75, 2.36, 1.62, 7.50, repro,
2006-02-25,1.49, 1.01, -6.14, 2.29, 1.57, 7.20, repro,
2006-02-26,1.16, 0.80, -0.01, 2.32, 1.60, 7.28, repro,
2006-02-27,1.87, 0.36, 6.34, 2.26, 1.58, 7.19, repro,
2006-02-28,0.39, 0.19, 5.87, 2.40, 1.64, 7.47, repro,
2006-03-01,0.77, 1.82, -1.42, 2.59, 1.72, 7.97, repro,
2006-03-02,0.95, 0.90, -4.67, 2.36, 1.63, 7.37, repro,
2006-03-03,1.91, 0.68, 0.15, 2.42, 1.63, 7.52, repro,
2006-03-04,1.74, 0.51, -8.80, 2.32, 1.62, 7.33, repro,
2006-03-05,0.83, 0.79, -10.79, 2.30, 1.61, 7.24, repro,
2006-03-06,3.07, -0.53, -4.92, 2.36, 1.64, 7.44, repro,
2006-03-07,1.05, 0.25, -3.24, 2.41, 1.65, 7.45, repro,
2006-03-08,0.12, -0.44, -2.07, 2.33, 1.64, 7.40, repro,
2006-03-09,1.31, 0.17, 4.25, 2.31, 1.64, 7.32, repro,
2006-03-10,1.74, 0.60, 5.66, 2.32, 1.62, 7.33, repro,
2006-03-11,2.20, 0.46, -0.76, 2.39, 1.64, 7.50, repro,
2006-03-12,1.12, 0.53, 0.95, 2.42, 1.66, 7.57, repro,
2006-03-13,0.05, 0.51, -2.33, 2.32, 1.62, 7.38, repro,
2006-03-14,3.13, 0.03, -0.88, 2.30, 1.61, 7.31, repro,
2006-03-15,-0.09, -0.25, -3.58, 2.38, 1.67, 7.59, repro,
2006-03-16,1.77, 0.25, -12.65, 2.50, 1.70, 8.03, repro,
2006-03-17,0.06, -0.77, -10.21, 2.49, 1.70, 7.84, repro,
2006-03-18,1.95, 0.50, -7.22, 2.38, 1.65, 7.48, repro,
2006-03-19,1.42, 0.05, -8.61, 2.32, 1.64, 7.48, repro,
2006-03-20,1.63, 0.54, -2.96, 2.42, 1.71, 7.72, repro,
2006-03-21,1.36, 0.23, -3.15, 2.35, 1.66, 7.52, repro,
2006-03-22,0.59, 1.17, -12.66, 2.57, 1.74, 7.88, repro,
2006-03-23,1.24, 1.10, -11.80, 2.38, 1.64, 7.45, repro,
2006-03-24,1.13, -2.24, 0.25, 2.44, 1.76, 7.76, repro,
2006-03-25,1.28, -0.38, -2.99, 2.37, 1.65, 7.43, repro,
2006-03-26,1.36, 0.59, -5.25, 2.36, 1.65, 7.40, repro,
2006-03-27,0.39, 1.11, -5.74, 2.35, 1.66, 7.46, repro,
2006-03-28,1.38, -0.62, 3.00, 2.31, 1.62, 7.29, repro,
2006-03-29,0.02, -0.29, 0.32, 2.30, 1.63, 7.32, repro,
2006-03-30,1.18, 0.07, -0.37, 2.28, 1.65, 7.28, repro,
2006-03-31,1.08, 0.37, -3.23, 2.22, 1.61, 7.16, repro,
2006-04-01,1.67, 0.54, -3.36, 2.28, 1.65, 7.30, repro,
2006-04-02,0.77, 0.31, -5.33, 2.28, 1.65, 7.32, repro,
2006-04-03,0.58, -0.32, -1.06, 2.25, 1.61, 7.23, repro,
2006-04-04,-0.24, 0.15, -6.90, 2.30, 1.64, 7.45, repro,
2006-04-05,1.05, 0.43, 0.91, 2.27, 1.65, 7.29, repro,
2006-04-06,1.70, 0.53, -6.41, 2.30, 1.68, 7.47, repro,
2006-04-07,1.10, 0.37, -7.36, 2.34, 1.65, 7.54, repro,
2006-04-08,-0.80, 0.53, -1.56, 2.31, 1.61, 7.36, repro,
2006-04-09,0.47, -0.58, -1.55, 2.30, 1.63, 7.32, repro,
2006-04-10,1.11, 0.02, -0.83, 2.29, 1.63, 7.32, repro,
2006-04-11,0.88, 0.49, 3.15, 2.29, 1.64, 7.45, repro,
2006-04-12,-0.86, 1.76, -2.69, 2.28, 1.64, 7.45, repro,
2006-04-13,-0.59, -0.40, -1.40, 2.23, 1.61, 7.25, repro,
2006-04-14,-0.07, -0.02, 5.13, 2.24, 1.62, 7.28, repro,
2006-04-15,1.35, -0.33, 10.51, 2.30, 1.64, 7.43, repro,
2006-04-16,0.53, -1.05, 8.99, 2.29, 1.64, 7.37, repro,
2006-04-17,2.10, 1.92, -2.04, 2.36, 1.70, 7.66, repro,
2006-04-18,2.39, 1.09, -13.76, 2.35, 1.65, 7.47, repro,
2006-04-19,0.79, 0.69, -5.61, 2.33, 1.68, 7.47, repro,
2006-04-20,0.13, -0.77, 3.91, 2.30, 1.64, 7.44, repro,
2006-04-21,0.98, 0.12, 2.16, 2.23, 1.60, 7.23, repro,
2006-04-22,1.50, 0.72, 0.10, 2.35, 1.72, 7.62, repro,
2006-04-23,1.61, 0.02, -8.38, 2.50, 1.91, 8.52, repro,
2006-04-24,1.23, 0.16, -8.01, 2.45, 1.79, 8.01, repro,
2006-04-25,-0.02, -0.15, 2.42, 2.28, 1.63, 7.39, repro,
2006-04-26,0.21, 1.07, -2.68, 2.30, 1.63, 7.41, repro,
2006-04-27,1.28, 0.79, -7.93, 2.46, 1.75, 7.88, repro,
2006-04-28,0.99, 1.74, -5.18, 2.41, 1.70, 7.59, repro,
2006-04-29,1.17, 1.09, -7.92, 2.28, 1.62, 7.34, repro,
2006-04-30,1.21, 0.04, -4.68, 2.27, 1.63, 7.48, repro,
2006-05-01,1.32, 0.91, -0.94, 2.26, 1.59, 7.24, repro,
2006-05-02,-0.20, -0.67, 1.27, 2.28, 1.64, 7.34, repro,
2006-05-03,0.88, 1.14, -0.17, 2.23, 1.59, 7.20, repro,
2006-05-04,0.50, 0.89, -4.66, 2.22, 1.60, 7.21, repro,
2006-05-05,0.35, 0.57, 1.05, 2.26, 1.64, 7.37, repro,
2006-05-06,1.44, -0.33, 8.34, 2.24, 1.59, 7.26, repro,
2006-05-07,1.72, 0.17, 3.71, 2.28, 1.63, 7.32, repro,
2006-05-08,0.26, 0.59, -1.59, 2.27, 1.64, 7.40, repro,
2006-05-09,2.51, 1.07, -3.16, 2.36, 1.67, 7.44, repro,
2006-05-10,0.95, 0.42, -2.94, 2.28, 1.62, 7.36, repro,
2006-05-11,0.80, 0.39, 0.86, 2.23, 1.60, 7.27, repro,
2006-05-12,-0.37, -1.47, 2.16, 2.23, 1.59, 7.23, repro,
2006-05-13,1.18, 0.07, -7.71, 2.34, 1.71, 7.65, repro,
2006-05-14,2.01, 0.66, -13.45, 2.30, 1.66, 7.43, repro,
2006-05-15,1.69, -0.14, -1.72, 2.23, 1.60, 7.29, repro,
2006-05-16,-0.31, 0.72, -6.22, 2.26, 1.63, 7.45, repro,
2006-05-17,0.27, -1.16, 5.22, 2.37, 1.76, 7.95, repro,
2006-05-18,1.64, 0.80, 1.16, 2.40, 1.71, 7.69, repro,
2006-05-19,-1.09, -1.03, 6.03, 2.32, 1.64, 7.45, repro,
2006-05-20,0.67, 0.18, 3.77, 2.43, 1.74, 7.74, repro,
2006-05-21,-1.20, 0.37, 4.41, 2.31, 1.63, 7.39, repro,
2006-05-22,0.25, -0.07, 5.55, 2.64, 1.92, 8.59, repro,
2006-05-23,0.02, -1.72, 5.27, 2.31, 1.65, 7.45, repro,
2006-05-24,0.67, -0.48, 4.82, 2.39, 1.72, 7.78, repro,
2006-05-25,1.34, 0.65, -6.04, 2.37, 1.69, 7.62, repro,
2006-05-26,-0.19, -0.03, 3.17, 2.37, 1.70, 7.69, repro,
2006-05-27,-0.44, -0.67, 3.80, 2.31, 1.64, 7.45, repro,
2006-05-28,0.05, -1.13, 6.07, 2.37, 1.68, 7.59, repro,
2006-05-29,0.59, 0.26, -3.90, 2.38, 1.68, 7.53, repro,
2006-05-30,-0.08, 1.25, -5.65, 2.29, 1.63, 7.33, repro,
2006-05-31,0.73, 0.96, 0.70, 2.31, 1.65, 7.43, repro,
2006-06-01,0.31, -0.26, 0.42, 2.35, 1.67, 7.59, repro,
2006-06-02,-0.51, 0.09, -2.67, 2.50, 1.78, 8.05, repro,
2006-06-03,0.11, 0.61, 4.66, 2.36, 1.67, 7.56, repro,
2006-06-04,-0.42, 0.87, 2.97, 2.37, 1.67, 7.54, repro,
2006-06-05,0.64, 2.18, -8.39, 2.38, 1.68, 7.63, repro,
2006-06-06,1.91, 0.22, -2.24, 2.38, 1.72, 7.80, repro,
2006-06-07,-0.20, 0.88, -3.34, 2.37, 1.66, 7.58, repro,
2006-06-08,-0.69, 0.49, 0.13, 2.31, 1.62, 7.31, repro,
2006-06-09,1.45, 0.17, 1.41, 2.70, 1.96, 8.70, repro,
2006-06-10,0.86, 1.14, -7.90, 2.35, 1.69, 7.59, repro,
2006-06-11,0.23, 0.95, -1.94, 2.29, 1.64, 7.36, repro,
2006-06-12,0.95, 0.55, 1.44, 2.32, 1.64, 7.43, repro,
2006-06-13,-0.47, -0.25, 4.21, 2.37, 1.66, 7.57, repro,
2006-06-14,0.62, 0.45, -0.16, 2.36, 1.68, 7.47, repro,
2006-06-15,0.47, 0.90, -2.23, 2.29, 1.62, 7.27, repro,
2006-06-16,2.07, 0.64, -3.01, 2.39, 1.69, 7.58, repro,
2006-06-17,-0.38, 0.18, 2.74, 2.30, 1.64, 7.38, repro,
2006-06-18,-0.79, -0.52, 5.61, 2.36, 1.70, 7.71, repro,
2006-06-19,0.61, -0.38, -0.81, 2.35, 1.70, 7.63, repro,
2006-06-20,-0.43, 0.96, 0.55, 2.42, 1.74, 7.77, repro,
2006-06-21,0.88, 0.84, 0.52, 2.33, 1.70, 7.59, repro,